Regional Weather Roundup
Issued by NWS

Current Version | Previous Version | Text Only | Print | Product List | Glossary On
Versions: 1 2 3 4 5 6 7 8 9 10 11 12 13 14 15 16 17 18 19 20 21 22 23 24 25 26 27 28
000
ASUS45 KBOI 210310
RWRID

IDAHO REGIONAL WEATHER ROUNDUP
NATIONAL WEATHER SERVICE BOISE ID
900 PM MDT FRI APR 20 2018

NOTE: "FAIR" INDICATES FEW OR NO CLOUDS BELOW 12000 FEET
WITH NO SIGNIFICANT WEATHER AND/OR OBSTRUCTIONS TO VISIBILITY

IDZ012-014-210400-
SOUTHWEST IDAHO


CITY           SKY/WX    TMP DP  RH WIND       PRES   REMARKS
BOISE          CLEAR     59  26  28 NW8       30.08R
CALDWELL       CLEAR     60  27  28 NW3       30.07S
$$

IDZ016-017-210400-
SOUTHCENTRAL IDAHO


CITY           SKY/WX    TMP DP  RH WIND       PRES   REMARKS
BURLEY         CLEAR     52  28  39 W9        30.08R
JEROME         CLEAR     55  28  35 SW12      30.09R
TWIN FALLS     CLEAR     50  26  39 SW13      30.11R
$$

IDZ019>023-210400-
SOUTHEAST IDAHO


CITY           SKY/WX    TMP DP  RH WIND       PRES   REMARKS
IDAHO FALLS    CLEAR     51  26  37 N7        30.06R
POCATELLO      CLEAR     54  31  41 SW13      30.07R
REXBURG        CLEAR     55  23  28 N6        30.05R
$$

IDZ006-010-011-018-031-032-210400-
CENTRAL IDAHO MOUNTAINS


CITY           SKY/WX    TMP DP  RH WIND       PRES   REMARKS
MCCALL         CLEAR     52  25  35 SW5       30.11R
HAILEY         CLEAR     55  34  44 E3        30.09R
STANLEY          N/A     42  20  41 S3        30.15R
SALMON         CLEAR     53  28  38 CALM      30.07R
CHALLIS        CLEAR     55  21  26 CALM      30.07R
$$

IDZ002-004-006-007-026-210400-
NORTHERN IDAHO


CITY           SKY/WX    TMP DP  RH WIND       PRES   REMARKS
LEWISTON       CLEAR     60  39  45 W6        30.09R
LOWELL           N/A     51  43  74 CALM      30.10R
COEUR D`ALENE  CLEAR     52  37  56 S5        30.10F
MULLAN PASS    CLEAR     39  30  70 NW7       30.14S WCI  34
$$




USA.gov is the U.S. government's official web portal to all federal, state and local government web resources and services.